Time,TemperatureF,DewpointF,PressureIn,WindDirection,WindDirectionDegrees,WindSpeedMPH,WindSpeedGustMPH,Humidity,HourlyPrecipIn,Conditions,Clouds,dailyrainin,SolarRadiationWatts/m^2,SoftwareType,DateUTC
2013-02-13 00:00:00,22.4,7.4,30.11,SSE,148,0.0,0.0,52,0.00,FEW,FEW,0.00,0.0,WeatherDisplay:10.37,2013-02-13 07:00:00,
2013-02-13 00:05:00,22.3,7.3,30.10,SSE,148,0.9,2.3,52,0.00,FEW,FEW,0.00,0.0,WeatherDisplay:10.37,2013-02-13 07:05:00,
2013-02-13 00:10:00,22.2,7.2,30.10,SSE,148,1.0,2.3,52,0.00,FEW,FEW,0.00,0.0,WeatherDisplay:10.37,2013-02-13 07:10:00,
2013-02-13 00:15:00,22.2,7.2,30.10,SSE,148,0.1,1.1,52,0.00,FEW,FEW,0.00,0.0,WeatherDisplay:10.37,2013-02-13 07:15:00,
2013-02-13 00:20:00,22.1,7.1,30.10,SSE,148,1.3,3.4,52,0.00,FEW,FEW,0.00,0.0,WeatherDisplay:10.37,2013-02-13 07:20:00,
2013-02-13 00:25:00,22.1,7.1,30.10,SSE,148,1.7,3.4,52,0.00,FEW,FEW,0.00,0.0,WeatherDisplay:10.37,2013-02-13 07:25:00,
2013-02-13 00:30:00,22.0,7.0,30.10,SSE,148,1.1,2.3,52,0.00,FEW,FEW,0.00,0.0,WeatherDisplay:10.37,2013-02-13 07:30:00,
2013-02-13 00:35:00,21.9,6.9,30.10,SSE,148,1.5,3.4,52,0.00,FEW,FEW,0.00,0.0,WeatherDisplay:10.37,2013-02-13 07:35:00,
2013-02-13 00:40:00,21.8,6.8,30.10,SSE,148,2.3,3.4,52,0.00,FEW,FEW,0.00,0.0,WeatherDisplay:10.37,2013-02-13 07:40:00,
2013-02-13 00:45:00,21.8,7.3,30.10,SSE,148,1.8,3.4,53,0.00,FEW,FEW,0.00,0.0,WeatherDisplay:10.37,2013-02-13 07:45:00,
2013-02-13 00:50:00,21.7,7.2,30.10,SSE,148,1.7,2.3,53,0.00,FEW,FEW,0.00,0.0,WeatherDisplay:10.37,2013-02-13 07:50:00,
2013-02-13 00:55:00,21.7,7.2,30.10,SSE,148,2.3,3.4,53,0.00,FEW,FEW,0.00,0.0,WeatherDisplay:10.37,2013-02-13 07:55:00,
2013-02-13 01:00:00,21.6,7.1,30.10,SSE,148,3.4,4.6,53,0.00,FEW,FEW,0.00,0.0,WeatherDisplay:10.37,2013-02-13 08:00:00,
2013-02-13 01:05:00,21.6,7.1,30.09,SSE,147,2.5,3.4,53,0.00,FEW,FEW,0.00,0.0,WeatherDisplay:10.37,2013-02-13 08:05:00,
2013-02-13 01:10:00,21.5,7.0,30.09,SE,146,3.6,3.6,53,0.00,FEW,FEW,0.00,0.0,WeatherDisplay:10.37,2013-02-13 08:10:00,
2013-02-13 01:15:00,21.5,7.0,30.08,SE,143,4.3,5.8,53,0.00,FEW,FEW,0.00,0.0,WeatherDisplay:10.37,2013-02-13 08:15:00,
2013-02-13 01:20:00,21.4,6.9,30.09,SE,141,2.9,4.0,53,0.00,FEW,FEW,0.00,0.0,WeatherDisplay:10.37,2013-02-13 08:20:00,
2013-02-13 01:25:00,21.3,7.2,30.09,SE,142,1.8,3.4,54,0.00,FEW,FEW,0.00,0.0,WeatherDisplay:10.37,2013-02-13 08:25:00,
2013-02-13 01:30:00,21.3,7.2,30.08,SE,141,0.7,2.3,54,0.00,FEW,FEW,0.00,0.0,WeatherDisplay:10.37,2013-02-13 08:30:00,
2013-02-13 01:35:00,21.2,7.1,30.08,SE,142,1.6,3.4,54,0.00,FEW,FEW,0.00,0.0,WeatherDisplay:10.37,2013-02-13 08:35:00,
2013-02-13 01:40:00,21.1,7.0,30.08,SE,141,0.0,1.1,54,0.00,FEW,FEW,0.00,0.0,WeatherDisplay:10.37,2013-02-13 08:40:00,
2013-02-13 01:45:00,21.1,7.0,30.08,SE,142,1.7,3.4,54,0.00,FEW,FEW,0.00,0.0,WeatherDisplay:10.37,2013-02-13 08:45:00,
2013-02-13 01:50:00,21.1,7.0,30.08,SE,141,0.1,1.1,54,0.00,FEW,FEW,0.00,0.0,WeatherDisplay:10.37,2013-02-13 08:50:00,
2013-02-13 01:55:00,21.0,7.3,30.08,SE,142,1.3,3.4,55,0.00,FEW,FEW,0.00,0.0,WeatherDisplay:10.37,2013-02-13 08:55:00,
2013-02-13 02:00:00,20.9,7.2,30.07,SE,142,0.8,3.4,55,0.00,FEW,FEW,0.00,0.0,WeatherDisplay:10.37,2013-02-13 09:00:00,
2013-02-13 02:05:00,20.8,7.2,30.07,SE,141,2.8,4.6,55,0.00,FEW,FEW,0.00,0.0,WeatherDisplay:10.37,2013-02-13 09:05:00,
2013-02-13 02:10:00,20.7,7.1,30.07,SE,142,2.1,3.4,55,0.00,FEW,FEW,0.00,0.0,WeatherDisplay:10.37,2013-02-13 09:10:00,
2013-02-13 02:15:00,20.6,7.0,30.07,SE,142,0.1,1.1,55,0.00,FEW,FEW,0.00,0.0,WeatherDisplay:10.37,2013-02-13 09:15:00,
2013-02-13 02:20:00,20.5,6.9,30.06,SE,142,0.4,1.1,55,0.00,FEW,FEW,0.00,0.0,WeatherDisplay:10.37,2013-02-13 09:20:00,
2013-02-13 02:25:00,20.6,7.0,30.06,SE,141,0.3,2.3,55,0.00,FEW,FEW,0.00,0.0,WeatherDisplay:10.37,2013-02-13 09:25:00,
2013-02-13 02:30:00,20.6,7.0,30.05,SE,142,0.8,2.3,55,0.00,FEW,FEW,0.00,0.0,WeatherDisplay:10.37,2013-02-13 09:30:00,
2013-02-13 02:35:00,20.8,6.7,30.05,SSE,152,1.5,3.4,54,0.00,FEW,FEW,0.00,0.0,WeatherDisplay:10.37,2013-02-13 09:35:00,
2013-02-13 02:40:00,21.1,6.6,30.05,SSE,152,1.9,3.4,53,0.00,FEW,FEW,0.00,0.0,WeatherDisplay:10.37,2013-02-13 09:40:00,
2013-02-13 02:45:00,21.4,6.9,30.04,SSE,152,2.1,3.4,53,0.00,FEW,FEW,0.00,0.0,WeatherDisplay:10.37,2013-02-13 09:45:00,
2013-02-13 02:50:00,21.7,6.8,30.04,SSE,153,1.1,3.4,52,0.00,FEW,FEW,0.00,0.0,WeatherDisplay:10.37,2013-02-13 09:50:00,
2013-02-13 02:55:00,21.8,6.8,30.03,SSE,153,0.3,1.1,52,0.00,FEW,FEW,0.00,0.0,WeatherDisplay:10.37,2013-02-13 09:55:00,
2013-02-13 03:00:00,21.9,6.5,30.03,SSE,153,0.0,0.0,51,0.00,FEW,FEW,0.00,0.0,WeatherDisplay:10.37,2013-02-13 10:00:00,
2013-02-13 03:05:00,22.2,6.4,30.03,SSW,197,0.1,2.3,50,0.00,SCT,SCT,0.00,0.0,WeatherDisplay:10.37,2013-02-13 10:05:00,
2013-02-13 03:10:00,22.3,6.4,30.03,SSW,196,0.0,0.0,50,0.00,SCT,SCT,0.00,0.0,WeatherDisplay:10.37,2013-02-13 10:10:00,
2013-02-13 03:15:00,22.4,6.5,30.03,SSW,199,0.0,1.0,50,0.00,SCT,SCT,0.00,0.0,WeatherDisplay:10.37,2013-02-13 10:15:00,
2013-02-13 03:20:00,22.6,6.7,30.01,SSW,198,0.3,1.1,50,0.00,SCT,SCT,0.00,0.0,WeatherDisplay:10.37,2013-02-13 10:20:00,
2013-02-13 03:25:00,22.8,7.4,30.01,SSW,198,0.0,1.1,51,0.00,SCT,SCT,0.00,0.0,WeatherDisplay:10.37,2013-02-13 10:25:00,
2013-02-13 03:30:00,23.0,7.1,30.01,SSW,193,0.3,3.4,50,0.00,SCT,SCT,0.00,0.0,WeatherDisplay:10.37,2013-02-13 10:30:00,
2013-02-13 03:35:00,23.2,6.8,30.01,SSW,192,0.4,2.3,49,0.00,SCT,SCT,0.00,0.0,WeatherDisplay:10.37,2013-02-13 10:35:00,
2013-02-13 03:40:00,23.3,6.9,30.01,South,191,0.2,1.0,49,0.00,SCT,SCT,0.00,0.0,WeatherDisplay:10.37,2013-02-13 10:40:00,
2013-02-13 03:45:00,23.5,6.7,30.01,South,191,0.1,2.3,48,0.00,SCT,SCT,0.00,0.0,WeatherDisplay:10.37,2013-02-13 10:45:00,
2013-02-13 03:50:00,23.6,6.8,30.01,South,184,1.4,3.4,48,0.00,SCT,SCT,0.00,0.0,WeatherDisplay:10.37,2013-02-13 10:50:00,
2013-02-13 03:55:00,23.7,6.8,30.01,South,169,2.3,4.6,48,0.00,SCT,SCT,0.00,0.0,WeatherDisplay:10.37,2013-02-13 10:55:00,
2013-02-13 04:00:00,23.8,6.9,30.01,South,173,0.6,2.0,48,0.00,SCT,SCT,0.00,0.0,WeatherDisplay:10.37,2013-02-13 11:00:00,
2013-02-13 04:05:00,23.7,7.3,30.02,SSE,166,0.5,2.3,49,0.00,SCT,SCT,0.00,0.0,WeatherDisplay:10.37,2013-02-13 11:05:00,
2013-02-13 04:10:00,23.6,7.2,30.02,SSE,166,0.5,2.3,49,0.00,SCT,SCT,0.00,0.0,WeatherDisplay:10.37,2013-02-13 11:10:00,
2013-02-13 04:15:00,23.4,7.5,30.03,SSE,165,1.2,2.3,50,0.00,SCT,SCT,0.00,0.0,WeatherDisplay:10.37,2013-02-13 11:15:00,
2013-02-13 04:20:00,23.1,7.2,30.02,SSE,166,0.7,2.3,50,0.00,SCT,SCT,0.00,0.0,WeatherDisplay:10.37,2013-02-13 11:20:00,
2013-02-13 04:25:00,22.8,7.4,30.03,SSE,165,0.0,0.0,51,0.00,SCT,SCT,0.00,0.0,WeatherDisplay:10.37,2013-02-13 11:25:00,
2013-02-13 04:30:00,22.5,7.1,30.03,SSE,166,1.7,2.3,51,0.00,SCT,SCT,0.00,0.0,WeatherDisplay:10.37,2013-02-13 11:30:00,
2013-02-13 04:35:00,22.2,7.2,30.03,SSE,166,3.4,4.0,52,0.00,SCT,SCT,0.00,0.0,WeatherDisplay:10.37,2013-02-13 11:35:00,
2013-02-13 04:40:00,21.8,7.3,30.03,SSE,166,1.5,3.4,53,0.00,SCT,SCT,0.00,0.0,WeatherDisplay:10.37,2013-02-13 11:40:00,
2013-02-13 04:45:00,21.5,7.0,30.03,SSE,166,2.6,3.4,53,0.00,SCT,SCT,0.00,0.0,WeatherDisplay:10.37,2013-02-13 11:45:00,
2013-02-13 04:50:00,21.2,7.1,30.04,SSE,166,0.9,2.3,54,0.00,SCT,SCT,0.00,0.0,WeatherDisplay:10.37,2013-02-13 11:50:00,
2013-02-13 04:55:00,21.0,7.3,30.03,SSE,165,2.2,3.4,55,0.00,SCT,SCT,0.00,0.0,WeatherDisplay:10.37,2013-02-13 11:55:00,
2013-02-13 05:00:00,20.8,7.2,30.03,SSE,165,0.2,2.3,55,0.00,SCT,SCT,0.00,0.0,WeatherDisplay:10.37,2013-02-13 12:00:00,
2013-02-13 05:05:00,20.8,7.2,30.05,SSE,166,0.0,0.0,55,0.00,SCT,SCT,0.00,0.0,WeatherDisplay:10.37,2013-02-13 12:05:00,
2013-02-13 05:10:00,20.7,7.5,30.06,SSE,166,2.8,3.4,56,0.00,SCT,SCT,0.00,0.0,WeatherDisplay:10.37,2013-02-13 12:10:00,
2013-02-13 05:15:00,20.7,7.9,30.05,SSE,165,1.3,3.4,57,0.00,SCT,SCT,0.00,0.0,WeatherDisplay:10.37,2013-02-13 12:15:00,
2013-02-13 05:20:00,20.8,7.9,30.05,SSE,165,0.9,2.3,57,0.00,SCT,SCT,0.00,0.0,WeatherDisplay:10.37,2013-02-13 12:20:00,
2013-02-13 05:25:00,21.1,7.8,30.05,South,171,1.3,4.6,56,0.00,SCT,SCT,0.00,0.0,WeatherDisplay:10.37,2013-02-13 12:25:00,
2013-02-13 05:30:00,21.4,7.7,30.06,South,172,1.3,3.4,55,0.00,SCT,SCT,0.00,0.0,WeatherDisplay:10.37,2013-02-13 12:30:00,
2013-02-13 05:35:00,21.8,7.7,30.04,South,190,0.3,2.3,54,0.00,SCT,SCT,0.00,0.0,WeatherDisplay:10.37,2013-02-13 12:35:00,
2013-02-13 05:40:00,22.2,8.1,30.04,South,189,2.1,3.4,54,0.00,SCT,SCT,0.00,0.0,WeatherDisplay:10.37,2013-02-13 12:40:00,
2013-02-13 05:45:00,22.5,7.9,30.04,South,189,0.3,1.1,53,0.00,SCT,SCT,0.00,0.0,WeatherDisplay:10.37,2013-02-13 12:45:00,
2013-02-13 05:50:00,22.7,8.1,30.03,South,190,1.2,3.4,53,0.00,SCT,SCT,0.00,0.0,WeatherDisplay:10.37,2013-02-13 12:50:00,
2013-02-13 05:55:00,23.0,8.4,30.03,South,190,1.0,3.4,53,0.00,SCT,SCT,0.00,0.0,WeatherDisplay:10.37,2013-02-13 12:55:00,
2013-02-13 06:00:00,23.2,9.0,30.03,South,190,0.0,2.3,54,0.00,SCT,SCT,0.00,0.0,WeatherDisplay:10.37,2013-02-13 13:00:00,
2013-02-13 06:05:00,23.5,8.9,30.04,South,173,1.6,3.4,53,0.00,SCT,SCT,0.00,0.0,WeatherDisplay:10.37,2013-02-13 13:05:00,
2013-02-13 06:10:00,23.6,8.9,30.04,South,173,1.5,3.4,53,0.00,SCT,SCT,0.00,0.0,WeatherDisplay:10.37,2013-02-13 13:10:00,
2013-02-13 06:15:00,23.8,8.7,30.03,South,173,0.4,3.4,52,0.00,SCT,SCT,0.00,0.0,WeatherDisplay:10.37,2013-02-13 13:15:00,
2013-02-13 06:20:00,23.9,8.8,30.03,South,173,1.3,3.4,52,0.00,SCT,SCT,0.00,0.0,WeatherDisplay:10.37,2013-02-13 13:20:00,
2013-02-13 06:25:00,24.0,8.5,30.03,South,173,0.8,2.3,51,0.00,SCT,SCT,0.00,0.0,WeatherDisplay:10.37,2013-02-13 13:25:00,
2013-02-13 06:30:00,24.0,8.9,30.03,South,173,2.1,3.4,52,0.00,SCT,SCT,0.00,0.0,WeatherDisplay:10.37,2013-02-13 13:30:00,
2013-02-13 06:35:00,24.0,8.9,30.03,South,172,2.5,4.0,52,0.00,SCT,SCT,0.00,0.0,WeatherDisplay:10.37,2013-02-13 13:35:00,
2013-02-13 06:40:00,23.9,8.8,30.03,South,172,1.4,3.4,52,0.00,SCT,SCT,0.00,0.0,WeatherDisplay:10.37,2013-02-13 13:40:00,
2013-02-13 06:45:00,23.9,9.2,30.03,South,172,0.7,3.4,53,0.00,SCT,SCT,0.00,0.0,WeatherDisplay:10.37,2013-02-13 13:45:00,
2013-02-13 06:50:00,23.9,8.8,30.02,SSE,165,2.3,4.6,52,0.00,SCT,SCT,0.00,0.0,WeatherDisplay:10.37,2013-02-13 13:50:00,
2013-02-13 06:55:00,23.9,8.8,30.02,SSE,148,2.7,5.8,52,0.00,SCT,SCT,0.00,7.0,WeatherDisplay:10.37,2013-02-13 13:55:00,
2013-02-13 07:00:00,23.9,8.8,30.02,SSE,148,1.4,3.4,52,0.00,SCT,SCT,0.00,9.0,WeatherDisplay:10.37,2013-02-13 14:00:00,
2013-02-13 07:05:00,23.9,8.4,30.04,SSE,148,0.5,2.3,51,0.00,FEW,FEW,0.00,12.0,WeatherDisplay:10.37,2013-02-13 14:05:00,
2013-02-13 07:10:00,23.9,8.8,30.04,SSE,148,0.6,3.4,52,0.00,FEW,FEW,0.00,16.0,WeatherDisplay:10.37,2013-02-13 14:10:00,
2013-02-13 07:15:00,24.1,9.0,30.04,SSE,153,0.4,4.6,52,0.00,FEW,FEW,0.00,21.0,WeatherDisplay:10.37,2013-02-13 14:15:00,
2013-02-13 07:20:00,24.3,9.2,30.04,SSE,151,2.7,4.6,52,0.00,FEW,FEW,0.00,37.0,WeatherDisplay:10.37,2013-02-13 14:20:00,
2013-02-13 07:25:00,24.7,9.1,30.03,SSE,155,2.2,3.4,51,0.00,FEW,FEW,0.00,60.0,WeatherDisplay:10.37,2013-02-13 14:25:00,
2013-02-13 07:30:00,25.1,9.0,30.03,SSE,155,1.6,3.4,50,0.00,FEW,FEW,0.00,102.0,WeatherDisplay:10.37,2013-02-13 14:30:00,
2013-02-13 07:35:00,25.7,9.2,30.03,SSE,166,1.3,3.0,49,0.00,FEW,FEW,0.00,120.0,WeatherDisplay:10.37,2013-02-13 14:35:00,
2013-02-13 07:40:00,26.2,9.2,30.03,South,171,1.6,3.4,48,0.00,FEW,FEW,0.00,128.0,WeatherDisplay:10.37,2013-02-13 14:40:00,
2013-02-13 07:45:00,26.9,9.8,30.02,SSE,159,1.2,3.4,48,0.00,FEW,FEW,0.00,165.0,WeatherDisplay:10.37,2013-02-13 14:45:00,
2013-02-13 07:50:00,27.6,10.0,30.03,South,176,1.1,3.4,47,0.00,FEW,FEW,0.00,158.0,WeatherDisplay:10.37,2013-02-13 14:50:00,
2013-02-13 07:55:00,28.3,10.1,30.02,South,187,1.8,3.4,46,0.00,FEW,FEW,0.00,202.0,WeatherDisplay:10.37,2013-02-13 14:55:00,
2013-02-13 08:00:00,29.0,9.8,30.01,South,188,0.2,3.4,44,0.00,FEW,FEW,0.00,211.0,WeatherDisplay:10.37,2013-02-13 15:00:00,
2013-02-13 08:05:00,29.7,10.4,30.01,SSW,194,1.5,3.4,44,0.00,SCT,SCT,0.00,220.0,WeatherDisplay:10.37,2013-02-13 15:05:00,
2013-02-13 08:10:00,30.2,10.4,30.01,SW,223,3.7,5.8,43,0.00,SCT,SCT,0.00,229.0,WeatherDisplay:10.37,2013-02-13 15:10:00,
2013-02-13 08:15:00,30.6,10.2,30.01,SSW,192,3.4,4.6,42,0.00,SCT,SCT,0.00,213.0,WeatherDisplay:10.37,2013-02-13 15:15:00,
2013-02-13 08:20:00,31.0,10.0,30.01,South,186,1.0,3.4,41,0.00,SCT,SCT,0.00,162.0,WeatherDisplay:10.37,2013-02-13 15:20:00,
2013-02-13 08:25:00,31.3,10.3,30.01,South,187,4.8,6.9,41,0.00,SCT,SCT,0.00,204.0,WeatherDisplay:10.37,2013-02-13 15:25:00,
2013-02-13 08:30:00,31.6,10.6,30.00,South,188,2.8,4.6,41,0.00,SCT,SCT,0.00,221.0,WeatherDisplay:10.37,2013-02-13 15:30:00,
2013-02-13 08:35:00,32.1,10.5,30.00,SSW,199,2.5,4.6,40,0.00,SCT,SCT,0.00,225.0,WeatherDisplay:10.37,2013-02-13 15:35:00,
2013-02-13 08:40:00,32.5,10.8,30.00,South,184,1.2,6.9,40,0.00,SCT,SCT,0.00,232.0,WeatherDisplay:10.37,2013-02-13 15:40:00,
2013-02-13 08:45:00,33.0,10.7,30.00,SSW,204,2.8,4.6,39,0.00,SCT,SCT,0.00,178.0,WeatherDisplay:10.37,2013-02-13 15:45:00,
2013-02-13 08:50:00,33.3,11.0,30.00,SSW,192,0.1,4.6,39,0.00,SCT,SCT,0.00,183.0,WeatherDisplay:10.37,2013-02-13 15:50:00,
2013-02-13 08:55:00,33.5,11.2,29.99,SSW,192,1.3,3.4,39,0.00,SCT,SCT,0.00,160.0,WeatherDisplay:10.37,2013-02-13 15:55:00,
2013-02-13 09:00:00,33.8,11.4,29.98,South,184,2.1,4.6,39,0.00,SCT,SCT,0.00,258.0,WeatherDisplay:10.37,2013-02-13 16:00:00,
2013-02-13 09:05:00,34.4,11.4,29.99,SSW,202,1.1,3.4,38,0.00,BKN,BKN,0.00,297.0,WeatherDisplay:10.37,2013-02-13 16:05:00,
2013-02-13 09:10:00,35.1,12.0,29.99,South,187,2.2,4.6,38,0.00,BKN,BKN,0.00,320.0,WeatherDisplay:10.37,2013-02-13 16:10:00,
2013-02-13 09:15:00,35.7,11.9,29.97,SSW,206,2.7,3.4,37,0.00,BKN,BKN,0.00,255.0,WeatherDisplay:10.37,2013-02-13 16:15:00,
2013-02-13 09:20:00,36.2,12.4,29.97,South,191,2.3,9.2,37,0.00,BKN,BKN,0.00,432.0,WeatherDisplay:10.37,2013-02-13 16:20:00,
2013-02-13 09:25:00,37.1,12.6,29.97,South,190,2.3,4.6,36,0.00,BKN,BKN,0.00,512.0,WeatherDisplay:10.37,2013-02-13 16:25:00,
2013-02-13 09:30:00,37.9,12.6,29.96,SSW,196,2.0,3.4,35,0.00,BKN,BKN,0.00,555.0,WeatherDisplay:10.37,2013-02-13 16:30:00,
2013-02-13 09:35:00,38.5,13.2,29.95,SW,221,0.6,2.3,35,0.00,BKN,BKN,0.00,248.0,WeatherDisplay:10.37,2013-02-13 16:35:00,
2013-02-13 09:40:00,39.1,13.1,29.96,SSW,199,1.0,3.4,34,0.00,BKN,BKN,0.00,257.0,WeatherDisplay:10.37,2013-02-13 16:40:00,
2013-02-13 09:45:00,39.7,12.9,29.95,SSW,200,0.0,1.1,33,0.00,BKN,BKN,0.00,570.0,WeatherDisplay:10.37,2013-02-13 16:45:00,
2013-02-13 09:50:00,40.5,13.6,29.95,SSW,200,0.1,2.0,33,0.00,BKN,BKN,0.00,476.0,WeatherDisplay:10.37,2013-02-13 16:50:00,
2013-02-13 09:55:00,41.0,14.7,29.95,SSW,199,1.4,3.4,34,0.00,BKN,BKN,0.00,406.0,WeatherDisplay:10.37,2013-02-13 16:55:00,
2013-02-13 10:00:00,41.3,13.6,29.95,SSW,199,1.5,3.4,32,0.00,BKN,BKN,0.00,640.0,WeatherDisplay:10.37,2013-02-13 17:00:00,
2013-02-13 10:05:00,41.6,13.2,29.96,SSW,200,1.4,3.4,31,0.00,BKN,BKN,0.00,418.0,WeatherDisplay:10.37,2013-02-13 17:05:00,
2013-02-13 10:10:00,41.9,13.4,29.97,SSW,202,2.2,4.0,31,0.00,BKN,BKN,0.00,468.0,WeatherDisplay:10.37,2013-02-13 17:10:00,
2013-02-13 10:15:00,42.4,13.9,29.97,SSW,211,0.2,3.4,31,0.00,BKN,BKN,0.00,306.0,WeatherDisplay:10.37,2013-02-13 17:15:00,
2013-02-13 10:20:00,42.9,13.5,29.96,WSW,252,1.6,4.6,30,0.00,BKN,BKN,0.00,522.0,WeatherDisplay:10.37,2013-02-13 17:20:00,
2013-02-13 10:25:00,43.4,14.0,29.96,WSW,251,0.8,3.4,30,0.00,BKN,BKN,0.00,478.0,WeatherDisplay:10.37,2013-02-13 17:25:00,
2013-02-13 10:30:00,43.6,14.2,29.97,WSW,248,1.0,3.4,30,0.00,BKN,BKN,0.00,438.0,WeatherDisplay:10.37,2013-02-13 17:30:00,
2013-02-13 10:35:00,44.0,13.7,29.97,WNW,285,1.7,4.6,29,0.00,BKN,BKN,0.00,323.0,WeatherDisplay:10.37,2013-02-13 17:35:00,
2013-02-13 10:40:00,44.4,14.1,29.97,WNW,287,0.0,1.1,29,0.00,BKN,BKN,0.00,348.0,WeatherDisplay:10.37,2013-02-13 17:40:00,
2013-02-13 10:45:00,45.2,14.8,29.97,WSW,248,3.7,6.9,29,0.00,BKN,BKN,0.00,594.0,WeatherDisplay:10.37,2013-02-13 17:45:00,
2013-02-13 10:50:00,45.6,14.3,29.97,NW,325,4.9,12.6,28,0.00,BKN,BKN,0.00,341.0,WeatherDisplay:10.37,2013-02-13 17:50:00,
2013-02-13 10:55:00,45.9,13.7,29.97,NW,317,5.7,12.6,27,0.00,BKN,BKN,0.00,494.0,WeatherDisplay:10.37,2013-02-13 17:55:00,
2013-02-13 11:00:00,45.5,13.4,29.97,NW,313,8.4,13.8,27,0.00,BKN,BKN,0.00,408.0,WeatherDisplay:10.37,2013-02-13 18:00:00,
2013-02-13 11:05:00,45.3,13.2,30.00,WNW,297,8.4,14.9,27,0.00,BKN,BKN,0.00,503.0,WeatherDisplay:10.37,2013-02-13 18:05:00,
2013-02-13 11:10:00,45.1,13.1,30.00,WNW,288,7.9,11.5,27,0.00,BKN,BKN,0.00,406.0,WeatherDisplay:10.37,2013-02-13 18:10:00,
2013-02-13 11:15:00,44.6,12.6,30.00,NW,312,4.1,13.8,27,0.00,BKN,BKN,0.00,251.0,WeatherDisplay:10.37,2013-02-13 18:15:00,
2013-02-13 11:20:00,43.9,12.8,30.00,West,275,8.3,12.6,28,0.00,BKN,BKN,0.00,237.0,WeatherDisplay:10.37,2013-02-13 18:20:00,
2013-02-13 11:25:00,43.4,13.2,30.02,WNW,303,11.2,16.1,29,0.00,BKN,BKN,0.00,237.0,WeatherDisplay:10.37,2013-02-13 18:25:00,
2013-02-13 11:30:00,42.8,13.5,30.02,NW,319,9.3,13.8,30,0.00,BKN,BKN,0.00,237.0,WeatherDisplay:10.37,2013-02-13 18:30:00,
2013-02-13 11:35:00,42.5,13.2,30.02,WNW,302,5.7,10.3,30,0.00,BKN,BKN,0.00,243.0,WeatherDisplay:10.37,2013-02-13 18:35:00,
2013-02-13 11:40:00,42.4,13.1,30.02,WNW,283,5.2,11.5,30,0.00,BKN,BKN,0.00,218.0,WeatherDisplay:10.37,2013-02-13 18:40:00,
2013-02-13 11:45:00,42.3,13.8,30.02,WNW,286,4.3,9.2,31,0.00,BKN,BKN,0.00,225.0,WeatherDisplay:10.37,2013-02-13 18:45:00,
2013-02-13 11:50:00,42.2,13.7,30.03,NW,306,4.5,6.9,31,0.00,BKN,BKN,0.00,211.0,WeatherDisplay:10.37,2013-02-13 18:50:00,
2013-02-13 11:55:00,42.2,13.7,30.02,WNW,299,6.4,11.5,31,0.00,BKN,BKN,0.00,218.0,WeatherDisplay:10.37,2013-02-13 18:55:00,
2013-02-13 12:00:00,42.1,13.6,30.02,NW,319,6.9,10.3,31,0.00,BKN,BKN,0.00,211.0,WeatherDisplay:10.37,2013-02-13 19:00:00,
2013-02-13 12:05:00,42.0,14.2,30.02,NW,306,6.0,10.3,32,0.00,BKN,BKN,0.00,211.0,WeatherDisplay:10.37,2013-02-13 19:05:00,
2013-02-13 12:10:00,42.0,14.2,30.01,WNW,298,6.0,8.1,32,0.00,BKN,BKN,0.00,244.0,WeatherDisplay:10.37,2013-02-13 19:10:00,
2013-02-13 12:15:00,42.0,14.2,30.02,NW,306,5.4,9.2,32,0.00,BKN,BKN,0.00,267.0,WeatherDisplay:10.37,2013-02-13 19:15:00,
2013-02-13 12:20:00,42.0,14.2,30.02,NW,309,4.7,10.0,32,0.00,BKN,BKN,0.00,330.0,WeatherDisplay:10.37,2013-02-13 19:20:00,
2013-02-13 12:25:00,42.3,14.5,30.02,WNW,298,5.0,6.9,32,0.00,BKN,BKN,0.00,401.0,WeatherDisplay:10.37,2013-02-13 19:25:00,
2013-02-13 12:30:00,42.7,14.8,30.01,WNW,292,3.1,9.2,32,0.00,BKN,BKN,0.00,383.0,WeatherDisplay:10.37,2013-02-13 19:30:00,
2013-02-13 12:35:00,43.9,15.2,30.00,West,279,10.2,19.5,31,0.00,BKN,BKN,0.00,728.0,WeatherDisplay:10.37,2013-02-13 19:35:00,
2013-02-13 12:40:00,44.5,14.9,30.00,WNW,303,10.5,13.0,30,0.00,BKN,BKN,0.00,466.0,WeatherDisplay:10.37,2013-02-13 19:40:00,
2013-02-13 12:45:00,44.3,14.8,30.00,WNW,286,13.3,21.9,30,0.00,BKN,BKN,0.00,371.0,WeatherDisplay:10.37,2013-02-13 19:45:00,
2013-02-13 12:50:00,44.2,14.7,30.00,WNW,302,9.7,18.4,30,0.00,BKN,BKN,0.00,257.0,WeatherDisplay:10.37,2013-02-13 19:50:00,
2013-02-13 12:55:00,44.1,14.6,29.99,WNW,283,8.4,12.6,30,0.00,BKN,BKN,0.00,462.0,WeatherDisplay:10.37,2013-02-13 19:55:00,
2013-02-13 13:00:00,44.4,14.9,29.99,NW,319,12.9,19.5,30,0.00,BKN,BKN,0.00,684.0,WeatherDisplay:10.37,2013-02-13 20:00:00,
2013-02-13 13:05:00,45.0,14.6,30.00,WNW,295,6.8,12.6,29,0.00,BKN,BKN,0.00,684.0,WeatherDisplay:10.37,2013-02-13 20:05:00,
2013-02-13 13:10:00,45.7,14.4,30.00,NW,319,11.5,24.1,28,0.00,BKN,BKN,0.00,536.0,WeatherDisplay:10.37,2013-02-13 20:10:00,
2013-02-13 13:15:00,46.0,14.7,30.00,NNW,329,10.8,14.9,28,0.00,BKN,BKN,0.00,636.0,WeatherDisplay:10.37,2013-02-13 20:15:00,
2013-02-13 13:20:00,46.0,14.7,30.00,West,279,10.8,18.4,28,0.00,BKN,BKN,0.00,636.0,WeatherDisplay:10.37,2013-02-13 20:20:00,
2013-02-13 13:25:00,45.9,14.6,30.00,West,264,9.1,13.8,28,0.00,BKN,BKN,0.00,615.0,WeatherDisplay:10.37,2013-02-13 20:25:00,
2013-02-13 13:30:00,46.1,15.6,30.00,WNW,292,8.9,18.4,29,0.00,BKN,BKN,0.00,596.0,WeatherDisplay:10.37,2013-02-13 20:30:00,
2013-02-13 13:35:00,46.0,15.5,29.99,NW,311,11.8,21.9,29,0.00,BKN,BKN,0.00,573.0,WeatherDisplay:10.37,2013-02-13 20:35:00,
2013-02-13 13:40:00,45.8,14.5,30.00,NW,312,10.2,18.0,28,0.00,BKN,BKN,0.00,582.0,WeatherDisplay:10.37,2013-02-13 20:40:00,
2013-02-13 13:45:00,45.8,14.5,29.99,NW,325,10.4,16.0,28,0.00,BKN,BKN,0.00,592.0,WeatherDisplay:10.37,2013-02-13 20:45:00,
2013-02-13 13:50:00,45.5,15.0,29.99,WNW,290,11.1,25.3,29,0.00,BKN,BKN,0.00,608.0,WeatherDisplay:10.37,2013-02-13 20:50:00,
2013-02-13 13:55:00,45.6,15.1,29.99,NW,326,11.6,23.0,29,0.00,BKN,BKN,0.00,603.0,WeatherDisplay:10.37,2013-02-13 20:55:00,
2013-02-13 14:00:00,45.6,15.1,29.99,NNW,346,12.3,19.5,29,0.00,BKN,BKN,0.00,566.0,WeatherDisplay:10.37,2013-02-13 21:00:00,
2013-02-13 14:05:00,45.5,15.0,29.98,WNW,298,9.3,19.5,29,0.00,BKN,BKN,0.00,316.0,WeatherDisplay:10.37,2013-02-13 21:05:00,
2013-02-13 14:10:00,45.1,15.5,29.99,WNW,298,6.9,11.5,30,0.00,BKN,BKN,0.00,281.0,WeatherDisplay:10.37,2013-02-13 21:10:00,
2013-02-13 14:15:00,44.6,15.0,29.99,NW,317,8.6,20.7,30,0.00,BKN,BKN,0.00,265.0,WeatherDisplay:10.37,2013-02-13 21:15:00,
2013-02-13 14:20:00,44.1,15.3,29.99,WSW,245,9.8,19.5,31,0.00,BKN,BKN,0.00,271.0,WeatherDisplay:10.37,2013-02-13 21:20:00,
2013-02-13 14:25:00,43.8,15.1,29.99,NW,324,7.2,12.6,31,0.00,BKN,BKN,0.00,352.0,WeatherDisplay:10.37,2013-02-13 21:25:00,
2013-02-13 14:30:00,43.7,15.0,29.99,WNW,303,8.7,16.1,31,0.00,BKN,BKN,0.00,302.0,WeatherDisplay:10.37,2013-02-13 21:30:00,
2013-02-13 14:35:00,43.5,14.8,29.99,West,275,5.2,10.3,31,0.00,BKN,BKN,0.00,315.0,WeatherDisplay:10.37,2013-02-13 21:35:00,
2013-02-13 14:40:00,43.7,15.0,29.99,WNW,300,10.2,18.4,31,0.00,BKN,BKN,0.00,374.0,WeatherDisplay:10.37,2013-02-13 21:40:00,
2013-02-13 14:45:00,43.6,14.9,29.99,NW,314,13.2,20.7,31,0.00,BKN,BKN,0.00,392.0,WeatherDisplay:10.37,2013-02-13 21:45:00,
2013-02-13 14:50:00,43.5,15.5,29.99,WNW,290,9.6,13.8,32,0.00,BKN,BKN,0.00,313.0,WeatherDisplay:10.37,2013-02-13 21:50:00,
2013-02-13 14:55:00,43.5,15.5,29.98,WNW,296,9.8,14.0,32,0.00,BKN,BKN,0.00,234.0,WeatherDisplay:10.37,2013-02-13 21:55:00,
2013-02-13 15:00:00,43.3,15.4,30.00,West,281,6.9,11.5,32,0.00,BKN,BKN,0.00,237.0,WeatherDisplay:10.37,2013-02-13 22:00:00,
2013-02-13 15:05:00,43.4,15.5,29.99,NNW,334,6.4,13.0,32,0.00,SCT,SCT,0.00,279.0,WeatherDisplay:10.37,2013-02-13 22:05:00,
2013-02-13 15:10:00,43.5,15.5,29.97,WNW,298,4.9,10.3,32,0.00,SCT,SCT,0.00,230.0,WeatherDisplay:10.37,2013-02-13 22:10:00,
2013-02-13 15:15:00,43.5,15.5,29.97,NW,311,6.8,16.1,32,0.00,SCT,SCT,0.00,237.0,WeatherDisplay:10.37,2013-02-13 22:15:00,
2013-02-13 15:20:00,43.7,15.0,29.97,NNW,333,15.6,26.4,31,0.00,SCT,SCT,0.00,276.0,WeatherDisplay:10.37,2013-02-13 22:20:00,
2013-02-13 15:25:00,43.8,15.1,29.97,West,277,11.2,17.3,31,0.00,SCT,SCT,0.00,295.0,WeatherDisplay:10.37,2013-02-13 22:25:00,
2013-02-13 15:30:00,44.1,15.3,29.97,NW,318,6.6,14.9,31,0.00,SCT,SCT,0.00,248.0,WeatherDisplay:10.37,2013-02-13 22:30:00,
2013-02-13 15:35:00,44.2,15.4,29.97,NW,311,13.3,19.5,31,0.00,SCT,SCT,0.00,241.0,WeatherDisplay:10.37,2013-02-13 22:35:00,
2013-02-13 15:40:00,44.1,16.1,29.97,WNW,292,11.1,18.0,32,0.00,SCT,SCT,0.00,169.0,WeatherDisplay:10.37,2013-02-13 22:40:00,
2013-02-13 15:45:00,43.7,15.7,29.96,NW,306,12.1,25.3,32,0.00,SCT,SCT,0.00,134.0,WeatherDisplay:10.37,2013-02-13 22:45:00,
2013-02-13 15:50:00,43.3,16.1,29.97,WNW,301,13.1,25.3,33,0.00,SCT,SCT,0.00,128.0,WeatherDisplay:10.37,2013-02-13 22:50:00,
2013-02-13 15:55:00,43.1,15.9,29.97,NW,306,15.5,18.4,33,0.00,SCT,SCT,0.00,125.0,WeatherDisplay:10.37,2013-02-13 22:55:00,
2013-02-13 16:00:00,43.0,15.8,29.97,WNW,302,14.3,19.5,33,0.00,SCT,SCT,0.00,111.0,WeatherDisplay:10.37,2013-02-13 23:00:00,
2013-02-13 16:05:00,42.9,15.7,29.98,NW,311,8.0,17.3,33,0.00,SCT,SCT,0.00,91.0,WeatherDisplay:10.37,2013-02-13 23:05:00,
2013-02-13 16:10:00,42.9,15.7,29.98,NW,306,13.9,19.5,33,0.00,SCT,SCT,0.00,86.0,WeatherDisplay:10.37,2013-02-13 23:10:00,
2013-02-13 16:15:00,42.9,15.7,29.99,NW,307,9.6,18.4,33,0.00,SCT,SCT,0.00,79.0,WeatherDisplay:10.37,2013-02-13 23:15:00,
2013-02-13 16:20:00,42.9,15.7,29.99,WNW,295,5.8,10.3,33,0.00,SCT,SCT,0.00,69.0,WeatherDisplay:10.37,2013-02-13 23:20:00,
2013-02-13 16:25:00,42.8,15.6,29.99,WNW,300,10.9,17.3,33,0.00,SCT,SCT,0.00,60.0,WeatherDisplay:10.37,2013-02-13 23:25:00,
2013-02-13 16:30:00,42.8,15.6,29.99,NNW,333,13.1,20.7,33,0.00,SCT,SCT,0.00,56.0,WeatherDisplay:10.37,2013-02-13 23:30:00,
2013-02-13 16:35:00,42.7,15.6,29.99,WNW,288,7.1,11.5,33,0.00,SCT,SCT,0.00,58.0,WeatherDisplay:10.37,2013-02-13 23:35:00,
2013-02-13 16:40:00,42.8,15.6,29.99,WNW,289,5.5,12.0,33,0.00,SCT,SCT,0.00,83.0,WeatherDisplay:10.37,2013-02-13 23:40:00,
2013-02-13 16:45:00,42.9,15.7,29.99,West,268,6.2,12.6,33,0.00,SCT,SCT,0.00,155.0,WeatherDisplay:10.37,2013-02-13 23:45:00,
2013-02-13 16:50:00,43.2,16.0,29.99,West,279,8.0,11.5,33,0.00,SCT,SCT,0.00,128.0,WeatherDisplay:10.37,2013-02-13 23:50:00,
2013-02-13 16:55:00,43.5,15.5,29.99,West,281,7.7,9.2,32,0.00,SCT,SCT,0.00,105.0,WeatherDisplay:10.37,2013-02-13 23:55:00,
2013-02-13 17:00:00,43.7,15.7,29.99,WNW,298,6.6,11.5,32,0.00,SCT,SCT,0.00,88.0,WeatherDisplay:10.37,2013-02-14 00:00:00,
2013-02-13 17:05:00,43.8,15.8,29.98,NW,307,6.1,14.9,32,0.00,SCT,SCT,0.00,70.0,WeatherDisplay:10.37,2013-02-14 00:05:00,
2013-02-13 17:10:00,43.8,15.8,29.98,NW,309,3.2,4.6,32,0.00,SCT,SCT,0.00,51.0,WeatherDisplay:10.37,2013-02-14 00:10:00,
2013-02-13 17:15:00,43.8,15.1,29.99,NW,309,8.8,11.5,31,0.00,SCT,SCT,0.00,30.0,WeatherDisplay:10.37,2013-02-14 00:15:00,
2013-02-13 17:20:00,43.7,15.0,29.99,NW,311,5.0,6.9,31,0.00,SCT,SCT,0.00,16.0,WeatherDisplay:10.37,2013-02-14 00:20:00,
2013-02-13 17:25:00,43.5,15.5,29.99,NW,316,3.2,5.8,32,0.00,SCT,SCT,0.00,9.0,WeatherDisplay:10.37,2013-02-14 00:25:00,
2013-02-13 17:30:00,43.3,15.4,29.99,WNW,290,6.8,12.6,32,0.00,SCT,SCT,0.00,5.0,WeatherDisplay:10.37,2013-02-14 00:30:00,
2013-02-13 17:35:00,43.2,15.3,29.99,NNW,327,4.2,6.9,32,0.00,SCT,SCT,0.00,0.0,WeatherDisplay:10.37,2013-02-14 00:35:00,
2013-02-13 17:40:00,43.0,15.1,29.99,WNW,291,3.8,5.8,32,0.00,SCT,SCT,0.00,0.0,WeatherDisplay:10.37,2013-02-14 00:40:00,
2013-02-13 17:45:00,42.8,14.9,29.99,WNW,288,3.5,6.9,32,0.00,SCT,SCT,0.00,0.0,WeatherDisplay:10.37,2013-02-14 00:45:00,
2013-02-13 17:50:00,42.5,15.4,29.99,WNW,293,5.4,12.6,33,0.00,SCT,SCT,0.00,0.0,WeatherDisplay:10.37,2013-02-14 00:50:00,
2013-02-13 17:55:00,42.3,15.2,30.00,North,355,7.9,12.6,33,0.00,SCT,SCT,0.00,0.0,WeatherDisplay:10.37,2013-02-14 00:55:00,
2013-02-13 18:00:00,42.1,15.0,30.00,NW,315,7.0,11.5,33,0.00,SCT,SCT,0.00,0.0,WeatherDisplay:10.37,2013-02-14 01:00:00,
2013-02-13 18:05:00,41.9,14.8,29.99,WNW,291,4.9,6.9,33,0.00,SCT,SCT,0.00,0.0,WeatherDisplay:10.37,2013-02-14 01:05:00,
2013-02-13 18:10:00,41.8,14.8,29.99,West,279,1.9,3.4,33,0.00,SCT,SCT,0.00,0.0,WeatherDisplay:10.37,2013-02-14 01:10:00,
2013-02-13 18:15:00,41.6,15.3,30.00,West,259,4.8,11.5,34,0.00,SCT,SCT,0.00,0.0,WeatherDisplay:10.37,2013-02-14 01:15:00,
2013-02-13 18:20:00,41.4,15.1,30.01,WNW,293,4.6,8.1,34,0.00,SCT,SCT,0.00,0.0,WeatherDisplay:10.37,2013-02-14 01:20:00,
2013-02-13 18:25:00,41.3,15.0,30.01,NW,306,3.7,5.8,34,0.00,SCT,SCT,0.00,0.0,WeatherDisplay:10.37,2013-02-14 01:25:00,
2013-02-13 18:30:00,41.1,14.8,30.01,West,277,3.6,4.6,34,0.00,SCT,SCT,0.00,0.0,WeatherDisplay:10.37,2013-02-14 01:30:00,
2013-02-13 18:35:00,41.0,14.7,30.01,West,268,0.2,3.4,34,0.00,SCT,SCT,0.00,0.0,WeatherDisplay:10.37,2013-02-14 01:35:00,
2013-02-13 18:40:00,40.8,14.6,30.01,WNW,296,0.0,0.0,34,0.00,SCT,SCT,0.00,0.0,WeatherDisplay:10.37,2013-02-14 01:40:00,
2013-02-13 18:45:00,40.6,15.0,30.02,WNW,291,1.7,3.4,35,0.00,SCT,SCT,0.00,0.0,WeatherDisplay:10.37,2013-02-14 01:45:00,
2013-02-13 18:50:00,40.4,14.9,30.02,WNW,292,1.6,3.4,35,0.00,SCT,SCT,0.00,0.0,WeatherDisplay:10.37,2013-02-14 01:50:00,
2013-02-13 18:55:00,40.2,14.7,30.02,WNW,292,1.6,4.0,35,0.00,SCT,SCT,0.00,0.0,WeatherDisplay:10.37,2013-02-14 01:55:00,
2013-02-13 19:00:00,40.1,14.6,30.03,WNW,292,0.0,2.3,35,0.00,SCT,SCT,0.00,0.0,WeatherDisplay:10.37,2013-02-14 02:00:00,
2013-02-13 19:05:00,39.9,14.4,30.00,WNW,291,0.0,0.0,35,0.00,SCT,SCT,0.00,0.0,WeatherDisplay:10.37,2013-02-14 02:05:00,
2013-02-13 19:10:00,39.8,14.3,30.01,WNW,292,0.8,3.4,35,0.00,SCT,SCT,0.00,0.0,WeatherDisplay:10.37,2013-02-14 02:10:00,
2013-02-13 19:15:00,39.6,14.2,30.01,WNW,292,0.1,1.1,35,0.00,SCT,SCT,0.00,0.0,WeatherDisplay:10.37,2013-02-14 02:15:00,
2013-02-13 19:20:00,39.3,14.5,30.01,WNW,292,0.3,3.4,36,0.00,SCT,SCT,0.00,0.0,WeatherDisplay:10.37,2013-02-14 02:20:00,
2013-02-13 19:25:00,39.1,14.4,30.01,WNW,291,1.1,3.4,36,0.00,SCT,SCT,0.00,0.0,WeatherDisplay:10.37,2013-02-14 02:25:00,
2013-02-13 19:30:00,38.9,14.2,30.01,NW,317,0.5,3.0,36,0.00,SCT,SCT,0.00,0.0,WeatherDisplay:10.37,2013-02-14 02:30:00,
2013-02-13 19:35:00,38.9,13.5,30.01,NW,319,6.2,11.5,35,0.00,SCT,SCT,0.00,0.0,WeatherDisplay:10.37,2013-02-14 02:35:00,
2013-02-13 19:40:00,39.0,13.6,30.01,WNW,301,2.8,6.9,35,0.00,SCT,SCT,0.00,0.0,WeatherDisplay:10.37,2013-02-14 02:40:00,
2013-02-13 19:45:00,39.1,13.1,30.01,WNW,303,4.6,8.1,34,0.00,SCT,SCT,0.00,0.0,WeatherDisplay:10.37,2013-02-14 02:45:00,
2013-02-13 19:50:00,39.2,13.1,30.01,NW,311,4.9,9.2,34,0.00,SCT,SCT,0.00,0.0,WeatherDisplay:10.37,2013-02-14 02:50:00,
2013-02-13 19:55:00,39.3,13.2,30.01,NW,310,1.3,3.4,34,0.00,SCT,SCT,0.00,0.0,WeatherDisplay:10.37,2013-02-14 02:55:00,
2013-02-13 20:00:00,39.2,13.1,30.01,WNW,284,0.0,1.1,34,0.00,SCT,SCT,0.00,0.0,WeatherDisplay:10.37,2013-02-14 03:00:00,
2013-02-13 20:05:00,39.1,13.1,29.99,West,277,0.0,0.0,34,0.00,SCT,SCT,0.00,0.0,WeatherDisplay:10.37,2013-02-14 03:05:00,
2013-02-13 20:10:00,39.0,13.6,29.99,West,276,0.1,2.3,35,0.00,SCT,SCT,0.00,0.0,WeatherDisplay:10.37,2013-02-14 03:10:00,
2013-02-13 20:15:00,38.8,13.4,29.99,WNW,284,1.9,5.8,35,0.00,SCT,SCT,0.00,0.0,WeatherDisplay:10.37,2013-02-14 03:15:00,
2013-02-13 20:20:00,38.6,13.3,29.99,WNW,284,0.5,2.3,35,0.00,SCT,SCT,0.00,0.0,WeatherDisplay:10.37,2013-02-14 03:20:00,
2013-02-13 20:25:00,38.4,13.1,29.99,WNW,296,1.6,3.4,35,0.00,SCT,SCT,0.00,0.0,WeatherDisplay:10.37,2013-02-14 03:25:00,
2013-02-13 20:30:00,38.3,13.0,29.99,WNW,299,2.5,3.4,35,0.00,SCT,SCT,0.00,0.0,WeatherDisplay:10.37,2013-02-14 03:30:00,
2013-02-13 20:35:00,38.2,13.6,29.99,WNW,300,0.0,0.0,36,0.00,SCT,SCT,0.00,0.0,WeatherDisplay:10.37,2013-02-14 03:35:00,
2013-02-13 20:40:00,38.1,13.5,29.99,WNW,300,0.9,2.3,36,0.00,SCT,SCT,0.00,0.0,WeatherDisplay:10.37,2013-02-14 03:40:00,
2013-02-13 20:45:00,37.9,13.3,29.99,WNW,300,0.5,2.3,36,0.00,SCT,SCT,0.00,0.0,WeatherDisplay:10.37,2013-02-14 03:45:00,
2013-02-13 20:50:00,37.8,13.2,29.99,WNW,300,1.3,3.4,36,0.00,SCT,SCT,0.00,0.0,WeatherDisplay:10.37,2013-02-14 03:50:00,
2013-02-13 20:55:00,37.7,13.1,29.99,WNW,302,1.3,3.4,36,0.00,SCT,SCT,0.00,0.0,WeatherDisplay:10.37,2013-02-14 03:55:00,
2013-02-13 21:00:00,37.6,13.0,29.99,WNW,302,0.0,2.3,36,0.00,SCT,SCT,0.00,0.0,WeatherDisplay:10.37,2013-02-14 04:00:00,
2013-02-13 21:05:00,37.5,13.6,29.96,WNW,302,0.0,0.0,37,0.00,SCT,SCT,0.00,0.0,WeatherDisplay:10.37,2013-02-14 04:05:00,
2013-02-13 21:10:00,37.4,13.5,29.96,WNW,302,0.0,0.0,37,0.00,SCT,SCT,0.00,0.0,WeatherDisplay:10.37,2013-02-14 04:10:00,
2013-02-13 21:15:00,37.2,13.3,29.97,WNW,302,0.0,0.0,37,0.00,SCT,SCT,0.00,0.0,WeatherDisplay:10.37,2013-02-14 04:15:00,
2013-02-13 21:20:00,37.0,13.7,29.97,WNW,302,0.0,0.0,38,0.00,SCT,SCT,0.00,0.0,WeatherDisplay:10.37,2013-02-14 04:20:00,
2013-02-13 21:25:00,36.8,13.5,29.97,WNW,302,0.0,0.0,38,0.00,SCT,SCT,0.00,0.0,WeatherDisplay:10.37,2013-02-14 04:25:00,
2013-02-13 21:30:00,36.5,13.3,29.97,WNW,302,0.0,0.0,38,0.00,SCT,SCT,0.00,0.0,WeatherDisplay:10.37,2013-02-14 04:30:00,
2013-02-13 21:35:00,36.2,13.6,29.98,South,172,2.6,4.6,39,0.00,SCT,SCT,0.00,0.0,WeatherDisplay:10.37,2013-02-14 04:35:00,
2013-02-13 21:40:00,35.7,13.7,29.98,South,172,2.6,3.4,40,0.00,SCT,SCT,0.00,0.0,WeatherDisplay:10.37,2013-02-14 04:40:00,
2013-02-13 21:45:00,35.2,13.8,29.98,South,169,2.6,3.4,41,0.00,SCT,SCT,0.00,0.0,WeatherDisplay:10.37,2013-02-14 04:45:00,
2013-02-13 21:50:00,34.4,13.6,29.99,SSE,168,1.8,3.4,42,0.00,SCT,SCT,0.00,0.0,WeatherDisplay:10.37,2013-02-14 04:50:00,
2013-02-13 21:55:00,34.0,13.8,29.99,SSE,168,1.2,3.4,43,0.00,SCT,SCT,0.00,0.0,WeatherDisplay:10.37,2013-02-14 04:55:00,
2013-02-13 22:00:00,33.4,13.8,29.99,SSE,168,2.0,3.4,44,0.00,SCT,SCT,0.00,0.0,WeatherDisplay:10.37,2013-02-14 05:00:00,
2013-02-13 22:05:00,32.9,13.9,29.97,SSE,167,3.0,4.0,45,0.00,SCT,SCT,0.00,0.0,WeatherDisplay:10.37,2013-02-14 05:05:00,
2013-02-13 22:10:00,32.4,13.9,29.97,SSE,148,2.8,3.4,46,0.00,SCT,SCT,0.00,0.0,WeatherDisplay:10.37,2013-02-14 05:10:00,
2013-02-13 22:15:00,32.1,14.1,29.98,SSE,148,1.4,3.4,47,0.00,SCT,SCT,0.00,0.0,WeatherDisplay:10.37,2013-02-14 05:15:00,
2013-02-13 22:20:00,31.7,13.7,29.98,SSE,148,2.6,3.4,47,0.00,SCT,SCT,0.00,0.0,WeatherDisplay:10.37,2013-02-14 05:20:00,
2013-02-13 22:25:00,31.3,13.9,29.99,SE,142,1.7,4.6,48,0.00,SCT,SCT,0.00,0.0,WeatherDisplay:10.37,2013-02-14 05:25:00,
2013-02-13 22:30:00,31.0,14.0,29.98,SE,142,1.2,3.4,49,0.00,SCT,SCT,0.00,0.0,WeatherDisplay:10.37,2013-02-14 05:30:00,
2013-02-13 22:35:00,30.7,13.8,29.98,SE,141,0.8,2.0,49,0.00,SCT,SCT,0.00,0.0,WeatherDisplay:10.37,2013-02-14 05:35:00,
2013-02-13 22:40:00,30.6,13.7,29.98,SE,141,0.5,2.3,49,0.00,SCT,SCT,0.00,0.0,WeatherDisplay:10.37,2013-02-14 05:40:00,
2013-02-13 22:45:00,30.5,13.6,29.98,SE,142,0.0,0.0,49,0.00,SCT,SCT,0.00,0.0,WeatherDisplay:10.37,2013-02-14 05:45:00,
2013-02-13 22:50:00,30.5,13.6,29.98,SE,142,0.0,0.0,49,0.00,SCT,SCT,0.00,0.0,WeatherDisplay:10.37,2013-02-14 05:50:00,
2013-02-13 22:55:00,30.6,13.2,29.98,SE,142,0.0,0.0,48,0.00,SCT,SCT,0.00,0.0,WeatherDisplay:10.37,2013-02-14 05:55:00,
2013-02-13 23:00:00,30.6,13.2,29.98,SE,142,0.0,0.0,48,0.00,SCT,SCT,0.00,0.0,WeatherDisplay:10.37,2013-02-14 06:00:00,
2013-02-13 23:05:00,30.5,13.6,30.01,SE,142,2.0,3.4,49,0.00,SCT,SCT,0.00,0.0,WeatherDisplay:10.37,2013-02-14 06:05:00,
2013-02-13 23:10:00,30.4,14.0,30.01,SE,142,0.9,2.3,50,0.00,SCT,SCT,0.00,0.0,WeatherDisplay:10.37,2013-02-14 06:10:00,
2013-02-13 23:15:00,30.2,13.8,30.01,SE,141,0.9,2.3,50,0.00,SCT,SCT,0.00,0.0,WeatherDisplay:10.37,2013-02-14 06:15:00,
2013-02-13 23:20:00,30.1,14.1,30.01,SE,142,0.5,2.3,51,0.00,SCT,SCT,0.00,0.0,WeatherDisplay:10.37,2013-02-14 06:20:00,
2013-02-13 23:25:00,29.9,13.9,30.01,SE,142,1.4,2.3,51,0.00,SCT,SCT,0.00,0.0,WeatherDisplay:10.37,2013-02-14 06:25:00,
2013-02-13 23:30:00,29.8,13.9,30.01,SE,142,0.6,2.0,51,0.00,SCT,SCT,0.00,0.0,WeatherDisplay:10.37,2013-02-14 06:30:00,
2013-02-13 23:35:00,29.7,14.2,30.01,SE,142,1.2,3.4,52,0.00,SCT,SCT,0.00,0.0,WeatherDisplay:10.37,2013-02-14 06:35:00,
2013-02-13 23:40:00,29.5,14.0,30.02,SE,142,0.8,3.4,52,0.00,SCT,SCT,0.00,0.0,WeatherDisplay:10.37,2013-02-14 06:40:00,
2013-02-13 23:45:00,29.3,13.8,30.03,SE,142,2.3,3.4,52,0.00,SCT,SCT,0.00,0.0,WeatherDisplay:10.37,2013-02-14 06:45:00,
2013-02-13 23:50:00,29.2,14.2,30.02,SE,141,3.0,3.4,53,0.00,SCT,SCT,0.00,0.0,WeatherDisplay:10.37,2013-02-14 06:50:00,
2013-02-13 23:55:00,29.0,14.0,30.02,SE,142,0.0,2.3,53,0.00,SCT,SCT,0.00,0.0,WeatherDisplay:10.37,2013-02-14 06:55:00,